Time,TemperatureF,DewpointF,PressureIn,WindDirection,WindDirectionDegrees,WindSpeedMPH,WindSpeedGustMPH,Humidity,HourlyPrecipIn,Conditions,Clouds,dailyrainin,SoftwareType,DateUTC
2013-01-07 00:03:00,44.5,40.3,30.05,West,259,1.0,1.0,85,0.00,,,0.00,Wunderground v.1.15,2013-01-07 08:03:00,
2013-01-07 00:09:00,44.2,40.0,30.05,West,259,2.0,2.0,85,0.00,,,0.00,Wunderground v.1.15,2013-01-07 08:09:00,
2013-01-07 00:15:00,44.2,40.3,30.06,West,259,0.0,2.0,86,0.00,,,0.00,Wunderground v.1.15,2013-01-07 08:15:00,
2013-01-07 00:20:00,43.9,40.0,30.06,West,259,1.0,1.0,86,0.00,,,0.00,Wunderground v.1.15,2013-01-07 08:20:00,
2013-01-07 00:25:00,43.9,40.0,30.06,West,259,1.0,2.0,86,0.00,,,0.00,Wunderground v.1.15,2013-01-07 08:25:00,
2013-01-07 00:31:00,43.8,39.9,30.06,West,259,0.0,1.0,86,0.00,,,0.00,Wunderground v.1.15,2013-01-07 08:31:00,
2013-01-07 00:36:00,43.8,39.9,30.06,West,259,1.0,2.0,86,0.00,,,0.00,Wunderground v.1.15,2013-01-07 08:36:00,
2013-01-07 00:41:00,43.8,39.9,30.06,West,259,1.0,1.0,86,0.00,,,0.00,Wunderground v.1.15,2013-01-07 08:41:00,
2013-01-07 00:47:00,43.8,39.9,30.06,West,259,1.0,1.0,86,0.00,,,0.00,Wunderground v.1.15,2013-01-07 08:47:00,
2013-01-07 00:52:00,43.9,40.0,30.06,West,259,0.0,1.0,86,0.00,,,0.00,Wunderground v.1.15,2013-01-07 08:52:00,
2013-01-07 00:57:00,44.2,40.3,30.06,West,259,2.0,2.0,86,0.00,,,0.00,Wunderground v.1.15,2013-01-07 08:57:00,
2013-01-07 01:02:00,44.6,40.1,30.06,West,259,0.0,1.0,84,0.00,,,0.00,Wunderground v.1.15,2013-01-07 09:02:00,
2013-01-07 01:08:00,44.8,40.0,30.06,West,259,1.0,1.0,83,0.00,,,0.00,Wunderground v.1.15,2013-01-07 09:08:00,
2013-01-07 01:13:00,44.9,39.7,30.06,West,259,0.0,1.0,82,0.00,,,0.00,Wunderground v.1.15,2013-01-07 09:13:00,
2013-01-07 01:19:00,44.9,39.7,30.06,West,259,0.0,1.0,82,0.00,,,0.00,Wunderground v.1.15,2013-01-07 09:19:00,
2013-01-07 01:24:00,44.9,39.7,30.06,West,259,0.0,2.0,82,0.00,,,0.00,Wunderground v.1.15,2013-01-07 09:24:00,
2013-01-07 01:29:00,44.9,39.7,30.07,West,259,0.0,2.0,82,0.00,,,0.00,Wunderground v.1.15,2013-01-07 09:29:00,
2013-01-07 01:35:00,44.9,39.7,30.07,West,259,0.0,0.0,82,0.00,,,0.00,Wunderground v.1.15,2013-01-07 09:35:00,
2013-01-07 01:40:00,44.3,39.5,30.07,West,259,0.0,0.0,83,0.00,,,0.00,Wunderground v.1.15,2013-01-07 09:40:00,
2013-01-07 01:45:00,43.9,39.4,30.07,West,259,0.0,1.0,84,0.00,,,0.00,Wunderground v.1.15,2013-01-07 09:45:00,
2013-01-07 01:50:00,43.8,39.6,30.07,West,259,0.0,0.0,85,0.00,,,0.00,Wunderground v.1.15,2013-01-07 09:50:00,
2013-01-07 01:56:00,43.3,39.4,30.07,West,259,0.0,0.0,86,0.00,,,0.00,Wunderground v.1.15,2013-01-07 09:56:00,
2013-01-07 02:01:00,43.1,39.2,30.07,West,259,0.0,0.0,86,0.00,,,0.00,Wunderground v.1.15,2013-01-07 10:01:00,
2013-01-07 02:06:00,42.6,39.0,30.07,West,259,0.0,0.0,87,0.00,,,0.00,Wunderground v.1.15,2013-01-07 10:06:00,
2013-01-07 02:11:00,42.2,39.2,30.07,West,259,0.0,0.0,89,0.00,,,0.00,Wunderground v.1.15,2013-01-07 10:11:00,
2013-01-07 02:16:00,41.9,38.9,30.07,West,259,0.0,0.0,89,0.00,,,0.00,Wunderground v.1.15,2013-01-07 10:16:00,
2013-01-07 02:21:00,41.6,38.9,30.07,West,259,0.0,0.0,90,0.00,,,0.00,Wunderground v.1.15,2013-01-07 10:21:00,
2013-01-07 02:26:00,41.3,38.6,30.07,West,259,0.0,1.0,90,0.00,,,0.00,Wunderground v.1.15,2013-01-07 10:26:00,
2013-01-07 02:31:00,41.1,38.7,30.08,West,259,2.0,2.0,91,0.00,,,0.00,Wunderground v.1.15,2013-01-07 10:31:00,
2013-01-07 02:36:00,40.9,38.8,30.08,West,259,0.0,2.0,92,0.00,,,0.00,Wunderground v.1.15,2013-01-07 10:36:00,
2013-01-07 02:41:00,40.8,38.7,30.08,West,259,0.0,0.0,92,0.00,,,0.00,Wunderground v.1.15,2013-01-07 10:41:00,
2013-01-07 02:46:00,40.5,38.4,30.08,West,259,0.0,1.0,92,0.00,,,0.00,Wunderground v.1.15,2013-01-07 10:46:00,
2013-01-07 02:51:00,40.6,38.7,30.08,West,259,0.0,0.0,93,0.00,,,0.00,Wunderground v.1.15,2013-01-07 10:51:00,
2013-01-07 02:56:00,40.6,38.7,30.08,West,259,0.0,0.0,93,0.00,,,0.00,Wunderground v.1.15,2013-01-07 10:56:00,
2013-01-07 03:01:00,40.5,38.6,30.08,West,259,0.0,0.0,93,0.00,,,0.00,Wunderground v.1.15,2013-01-07 11:01:00,
2013-01-07 03:06:00,40.5,38.9,30.08,West,259,1.0,1.0,94,0.00,,,0.00,Wunderground v.1.15,2013-01-07 11:06:00,
2013-01-07 03:11:00,40.8,39.2,30.08,West,259,0.0,2.0,94,0.00,,,0.00,Wunderground v.1.15,2013-01-07 11:11:00,
2013-01-07 03:16:00,40.9,39.3,30.08,West,259,0.0,2.0,94,0.00,,,0.00,Wunderground v.1.15,2013-01-07 11:16:00,
2013-01-07 03:22:00,40.8,38.9,30.08,West,259,0.0,0.0,93,0.00,,,0.00,Wunderground v.1.15,2013-01-07 11:22:00,
2013-01-07 03:27:00,40.6,39.0,30.08,West,259,0.0,2.0,94,0.00,,,0.00,Wunderground v.1.15,2013-01-07 11:27:00,
2013-01-07 03:32:00,40.5,38.9,30.09,West,259,1.0,2.0,94,0.00,,,0.00,Wunderground v.1.15,2013-01-07 11:32:00,
2013-01-07 03:37:00,40.8,39.2,30.09,West,259,0.0,2.0,94,0.00,,,0.00,Wunderground v.1.15,2013-01-07 11:37:00,
2013-01-07 03:42:00,41.1,39.5,30.09,West,259,1.0,2.0,94,0.00,,,0.00,Wunderground v.1.15,2013-01-07 11:42:00,
2013-01-07 03:47:00,41.1,39.2,30.08,West,259,0.0,2.0,93,0.00,,,0.00,Wunderground v.1.15,2013-01-07 11:47:00,
2013-01-07 03:52:00,40.9,39.0,30.08,West,259,0.0,0.0,93,0.00,,,0.00,Wunderground v.1.15,2013-01-07 11:52:00,
2013-01-07 03:57:00,40.6,38.7,30.08,West,259,0.0,0.0,93,0.00,,,0.00,Wunderground v.1.15,2013-01-07 11:57:00,
2013-01-07 04:02:00,40.2,38.3,30.08,West,259,0.0,0.0,93,0.00,,,0.00,Wunderground v.1.15,2013-01-07 12:02:00,
2013-01-07 04:07:00,39.9,38.0,30.08,West,259,0.0,0.0,93,0.00,,,0.00,Wunderground v.1.15,2013-01-07 12:07:00,
2013-01-07 04:12:00,39.9,38.3,30.08,West,259,1.0,2.0,94,0.00,,,0.00,Wunderground v.1.15,2013-01-07 12:12:00,
2013-01-07 04:17:00,39.9,38.6,30.08,West,259,0.0,2.0,95,0.00,,,0.00,Wunderground v.1.15,2013-01-07 12:17:00,
2013-01-07 04:22:00,40.1,38.8,30.08,West,259,0.0,0.0,95,0.00,,,0.00,Wunderground v.1.15,2013-01-07 12:22:00,
2013-01-07 04:27:00,40.1,38.8,30.08,West,259,0.0,0.0,95,0.00,,,0.00,Wunderground v.1.15,2013-01-07 12:27:00,
2013-01-07 04:32:00,40.1,39.1,30.09,West,259,0.0,0.0,96,0.00,,,0.00,Wunderground v.1.15,2013-01-07 12:32:00,
2013-01-07 04:37:00,40.1,39.1,30.09,West,259,0.0,0.0,96,0.00,,,0.00,Wunderground v.1.15,2013-01-07 12:37:00,
2013-01-07 04:42:00,39.9,38.9,30.09,West,259,0.0,1.0,96,0.00,,,0.00,Wunderground v.1.15,2013-01-07 12:42:00,
2013-01-07 04:47:00,39.8,38.8,30.09,West,259,0.0,1.0,96,0.00,,,0.00,Wunderground v.1.15,2013-01-07 12:47:00,
2013-01-07 04:52:00,39.6,38.6,30.09,West,259,0.0,0.0,96,0.00,,,0.00,Wunderground v.1.15,2013-01-07 12:52:00,
2013-01-07 04:57:00,39.3,38.3,30.09,West,259,0.0,0.0,96,0.00,,,0.00,Wunderground v.1.15,2013-01-07 12:57:00,
2013-01-07 05:03:00,39.2,38.2,30.08,West,259,0.0,0.0,96,0.00,,,0.00,Wunderground v.1.15,2013-01-07 13:03:00,
2013-01-07 05:08:00,38.9,37.9,30.08,West,259,0.0,0.0,96,0.00,,,0.00,Wunderground v.1.15,2013-01-07 13:08:00,
2013-01-07 05:13:00,38.6,37.6,30.08,West,259,0.0,0.0,96,0.00,,,0.00,Wunderground v.1.15,2013-01-07 13:13:00,
2013-01-07 05:18:00,38.3,37.3,30.09,West,259,0.0,0.0,96,0.00,,,0.00,Wunderground v.1.15,2013-01-07 13:18:00,
2013-01-07 05:23:00,38.0,37.0,30.09,West,259,0.0,0.0,96,0.00,,,0.00,Wunderground v.1.15,2013-01-07 13:23:00,
2013-01-07 05:28:00,37.9,37.1,30.09,West,259,0.0,1.0,97,0.00,,,0.00,Wunderground v.1.15,2013-01-07 13:28:00,
2013-01-07 05:33:00,37.9,37.1,30.10,West,259,1.0,3.0,97,0.00,,,0.00,Wunderground v.1.15,2013-01-07 13:33:00,
2013-01-07 05:38:00,38.2,37.4,30.10,West,259,0.0,3.0,97,0.00,,,0.00,Wunderground v.1.15,2013-01-07 13:38:00,
2013-01-07 05:43:00,38.3,37.8,30.10,West,259,0.0,0.0,98,0.00,,,0.00,Wunderground v.1.15,2013-01-07 13:43:00,
2013-01-07 05:48:00,38.5,38.0,30.10,West,259,0.0,0.0,98,0.00,,,0.00,Wunderground v.1.15,2013-01-07 13:48:00,
2013-01-07 05:53:00,38.3,37.8,30.10,West,259,0.0,1.0,98,0.00,,,0.00,Wunderground v.1.15,2013-01-07 13:53:00,
2013-01-07 05:58:00,38.3,37.8,30.10,West,259,0.0,1.0,98,0.00,,,0.00,Wunderground v.1.15,2013-01-07 13:58:00,
2013-01-07 06:03:00,38.2,37.7,30.11,West,259,0.0,2.0,98,0.00,,,0.00,Wunderground v.1.15,2013-01-07 14:03:00,
2013-01-07 06:08:00,38.0,37.5,30.11,West,259,0.0,2.0,98,0.00,,,0.00,Wunderground v.1.15,2013-01-07 14:08:00,
2013-01-07 06:13:00,38.0,37.5,30.11,West,259,1.0,2.0,98,0.00,,,0.00,Wunderground v.1.15,2013-01-07 14:13:00,
2013-01-07 06:18:00,38.0,37.7,30.11,West,259,0.0,2.0,99,0.00,,,0.00,Wunderground v.1.15,2013-01-07 14:18:00,
2013-01-07 06:23:00,37.9,37.6,30.11,West,259,0.0,0.0,99,0.00,,,0.00,Wunderground v.1.15,2013-01-07 14:23:00,
2013-01-07 06:28:00,37.8,37.5,30.11,West,259,0.0,0.0,99,0.00,,,0.00,Wunderground v.1.15,2013-01-07 14:28:00,
2013-01-07 06:33:00,37.9,37.9,30.13,West,259,0.0,1.0,100,0.00,,,0.00,Wunderground v.1.15,2013-01-07 14:33:00,
2013-01-07 06:38:00,38.3,38.3,30.13,West,259,1.0,2.0,100,0.00,,,0.00,Wunderground v.1.15,2013-01-07 14:38:00,
2013-01-07 06:43:00,38.9,38.9,30.13,West,259,0.0,1.0,100,0.00,,,0.00,Wunderground v.1.15,2013-01-07 14:43:00,
2013-01-07 06:48:00,38.9,38.9,30.14,West,259,0.0,2.0,100,0.00,,,0.00,Wunderground v.1.15,2013-01-07 14:48:00,
2013-01-07 06:53:00,38.8,38.8,30.14,West,259,0.0,1.0,100,0.00,,,0.00,Wunderground v.1.15,2013-01-07 14:53:00,
2013-01-07 06:58:00,38.8,38.8,30.14,West,259,0.0,1.0,100,0.00,,,0.00,Wunderground v.1.15,2013-01-07 14:58:00,
2013-01-07 07:03:00,38.6,38.6,30.14,West,259,0.0,1.0,100,0.00,,,0.00,Wunderground v.1.15,2013-01-07 15:03:00,
2013-01-07 07:08:00,38.2,38.2,30.14,West,259,0.0,1.0,100,0.00,,,0.00,Wunderground v.1.15,2013-01-07 15:08:00,
2013-01-07 07:13:00,37.8,37.8,30.14,West,259,0.0,0.0,100,0.00,,,0.00,Wunderground v.1.15,2013-01-07 15:13:00,
2013-01-07 07:18:00,37.3,37.3,30.14,West,259,0.0,1.0,100,0.00,,,0.00,Wunderground v.1.15,2013-01-07 15:18:00,
2013-01-07 07:23:00,37.3,37.3,30.14,West,259,0.0,0.0,100,0.00,,,0.00,Wunderground v.1.15,2013-01-07 15:23:00,
2013-01-07 07:28:00,37.2,37.2,30.14,West,259,0.0,0.0,100,0.00,,,0.00,Wunderground v.1.15,2013-01-07 15:28:00,
2013-01-07 07:33:00,37.0,37.0,30.14,West,259,0.0,0.0,100,0.00,,,0.00,Wunderground v.1.15,2013-01-07 15:33:00,
2013-01-07 07:38:00,37.0,37.0,30.14,West,259,0.0,0.0,100,0.00,,,0.00,Wunderground v.1.15,2013-01-07 15:38:00,
2013-01-07 07:43:00,37.0,37.0,30.14,West,259,0.0,0.0,100,0.00,,,0.00,Wunderground v.1.15,2013-01-07 15:43:00,
2013-01-07 07:48:00,37.2,37.2,30.14,West,259,0.0,1.0,100,0.00,,,0.00,Wunderground v.1.15,2013-01-07 15:48:00,
2013-01-07 07:53:00,37.5,37.5,30.14,West,259,0.0,0.0,100,0.00,,,0.00,Wunderground v.1.15,2013-01-07 15:53:00,
2013-01-07 07:58:00,37.9,37.9,30.14,West,259,0.0,0.0,100,0.00,,,0.00,Wunderground v.1.15,2013-01-07 15:58:00,
2013-01-07 08:03:00,38.5,38.5,30.15,West,259,0.0,0.0,100,0.00,,,0.00,Wunderground v.1.15,2013-01-07 16:03:00,
2013-01-07 08:08:00,39.3,39.3,30.15,West,259,0.0,1.0,100,0.00,,,0.00,Wunderground v.1.15,2013-01-07 16:08:00,
2013-01-07 08:13:00,39.8,39.8,30.15,West,259,0.0,0.0,100,0.00,,,0.00,Wunderground v.1.15,2013-01-07 16:13:00,
2013-01-07 08:18:00,40.2,40.2,30.15,West,259,0.0,1.0,100,0.00,,,0.00,Wunderground v.1.15,2013-01-07 16:18:00,
2013-01-07 08:23:00,40.8,40.8,30.15,West,259,0.0,0.0,100,0.00,,,0.00,Wunderground v.1.15,2013-01-07 16:23:00,
2013-01-07 08:28:00,41.5,41.5,30.15,West,259,0.0,0.0,100,0.00,,,0.00,Wunderground v.1.15,2013-01-07 16:28:00,
2013-01-07 08:33:00,41.9,41.9,30.16,West,259,0.0,0.0,100,0.00,,,0.00,Wunderground v.1.15,2013-01-07 16:33:00,
2013-01-07 08:38:00,42.2,42.2,30.16,West,259,0.0,0.0,100,0.00,,,0.00,Wunderground v.1.15,2013-01-07 16:38:00,
2013-01-07 08:43:00,42.5,42.5,30.16,West,259,0.0,0.0,100,0.00,,,0.00,Wunderground v.1.15,2013-01-07 16:43:00,
2013-01-07 08:48:00,42.8,42.8,30.16,West,259,0.0,1.0,100,0.00,,,0.00,Wunderground v.1.15,2013-01-07 16:48:00,
2013-01-07 08:53:00,43.5,43.5,30.16,West,259,0.0,2.0,100,0.00,,,0.00,Wunderground v.1.15,2013-01-07 16:53:00,
2013-01-07 08:58:00,43.9,43.6,30.16,West,259,0.0,2.0,99,0.00,,,0.00,Wunderground v.1.15,2013-01-07 16:58:00,
2013-01-07 09:03:00,44.3,43.8,30.16,West,259,0.0,1.0,98,0.00,,,0.00,Wunderground v.1.15,2013-01-07 17:03:00,
2013-01-07 09:08:00,44.9,44.4,30.16,West,259,0.0,1.0,98,0.00,,,0.00,Wunderground v.1.15,2013-01-07 17:08:00,
2013-01-07 09:13:00,45.7,44.6,30.16,West,259,0.0,0.0,96,0.00,,,0.00,Wunderground v.1.15,2013-01-07 17:13:00,
2013-01-07 09:18:00,46.4,44.5,30.16,West,259,0.0,0.0,93,0.00,,,0.00,Wunderground v.1.15,2013-01-07 17:18:00,
2013-01-07 09:23:00,47.1,44.0,30.16,West,259,0.0,0.0,89,0.00,,,0.00,Wunderground v.1.15,2013-01-07 17:23:00,
2013-01-07 09:28:00,47.7,44.0,30.16,West,259,0.0,0.0,87,0.00,,,0.00,Wunderground v.1.15,2013-01-07 17:28:00,
2013-01-07 09:33:00,48.5,44.8,30.16,West,259,0.0,0.0,87,0.00,,,0.00,Wunderground v.1.15,2013-01-07 17:33:00,
2013-01-07 09:38:00,48.9,44.6,30.16,East,101,0.0,3.0,85,0.00,,,0.00,Wunderground v.1.15,2013-01-07 17:38:00,
2013-01-07 09:43:00,49.6,45.0,30.16,East,99,0.0,1.0,84,0.00,,,0.00,Wunderground v.1.15,2013-01-07 17:43:00,
2013-01-07 09:48:00,50.4,45.1,30.17,East,99,0.0,1.0,82,0.00,,,0.00,Wunderground v.1.15,2013-01-07 17:48:00,
2013-01-07 09:53:00,51.0,44.7,30.17,ESE,104,0.0,1.0,79,0.00,,,0.00,Wunderground v.1.15,2013-01-07 17:53:00,
2013-01-07 09:58:00,51.7,44.7,30.17,ENE,78,0.0,3.0,77,0.00,,,0.00,Wunderground v.1.15,2013-01-07 17:58:00,
2013-01-07 10:03:00,52.5,44.8,30.16,East,90,0.0,1.0,75,0.00,,,0.00,Wunderground v.1.15,2013-01-07 18:03:00,
2013-01-07 10:08:00,52.8,45.1,30.16,East,90,0.0,1.0,75,0.00,,,0.00,Wunderground v.1.15,2013-01-07 18:08:00,
2013-01-07 10:13:00,53.1,44.7,30.16,East,90,0.0,1.0,73,0.00,,,0.00,Wunderground v.1.15,2013-01-07 18:13:00,
2013-01-07 10:18:00,53.1,43.9,30.16,SE,136,0.0,5.0,71,0.00,,,0.00,Wunderground v.1.15,2013-01-07 18:18:00,
2013-01-07 10:23:00,53.1,43.9,30.16,SE,136,0.0,2.0,71,0.00,,,0.00,Wunderground v.1.15,2013-01-07 18:23:00,
2013-01-07 10:28:00,53.1,44.7,30.16,East,86,1.0,4.0,73,0.00,,,0.00,Wunderground v.1.15,2013-01-07 18:28:00,
2013-01-07 10:33:00,53.1,44.3,30.14,ENE,58,2.0,2.0,72,0.00,,,0.00,Wunderground v.1.15,2013-01-07 18:33:00,
2013-01-07 10:38:00,53.1,43.9,30.14,East,79,0.0,3.0,71,0.00,,,0.00,Wunderground v.1.15,2013-01-07 18:38:00,
2013-01-07 10:43:00,53.1,43.2,30.15,SE,129,1.0,3.0,69,0.00,,,0.00,Wunderground v.1.15,2013-01-07 18:43:00,
2013-01-07 10:48:00,53.1,43.9,30.15,SE,129,0.0,3.0,71,0.00,,,0.00,Wunderground v.1.15,2013-01-07 18:48:00,
2013-01-07 10:53:00,53.1,43.9,30.15,SE,129,0.0,0.0,71,0.00,,,0.00,Wunderground v.1.15,2013-01-07 18:53:00,
2013-01-07 10:58:00,53.1,43.6,30.16,SE,129,0.0,0.0,70,0.00,,,0.00,Wunderground v.1.15,2013-01-07 18:58:00,
2013-01-07 11:03:00,53.2,44.4,30.16,SSE,156,0.0,3.0,72,0.00,,,0.00,Wunderground v.1.15,2013-01-07 19:03:00,
2013-01-07 11:08:00,53.2,44.4,30.16,SSE,156,0.0,3.0,72,0.00,,,0.00,Wunderground v.1.15,2013-01-07 19:08:00,
2013-01-07 11:13:00,53.2,43.7,30.14,SSE,153,0.0,2.0,70,0.00,,,0.00,Wunderground v.1.15,2013-01-07 19:13:00,
2013-01-07 11:18:00,53.3,44.1,30.14,SE,143,0.0,3.0,71,0.00,,,0.00,Wunderground v.1.15,2013-01-07 19:18:00,
2013-01-07 11:23:00,53.6,44.0,30.14,SSE,168,0.0,2.0,70,0.00,,,0.00,Wunderground v.1.15,2013-01-07 19:23:00,
2013-01-07 11:28:00,53.9,44.0,30.13,SSE,160,4.0,4.0,69,0.00,,,0.00,Wunderground v.1.15,2013-01-07 19:28:00,
2013-01-07 11:33:00,53.9,44.0,30.13,SSE,159,0.0,2.0,69,0.00,,,0.00,Wunderground v.1.15,2013-01-07 19:33:00,
2013-01-07 11:38:00,53.8,43.9,30.13,SSE,159,0.0,2.0,69,0.00,,,0.00,Wunderground v.1.15,2013-01-07 19:38:00,
2013-01-07 11:43:00,53.6,44.0,30.13,SSE,159,0.0,0.0,70,0.00,,,0.00,Wunderground v.1.15,2013-01-07 19:43:00,
2013-01-07 11:48:00,53.5,45.1,30.13,SSE,159,0.0,2.0,73,0.00,,,0.00,Wunderground v.1.15,2013-01-07 19:48:00,
2013-01-07 11:54:00,53.3,45.6,30.13,North,350,2.0,5.0,75,0.00,,,0.00,Wunderground v.1.15,2013-01-07 19:54:00,
2013-01-07 11:59:00,53.6,46.2,30.13,North,10,4.0,5.0,76,0.00,,,0.00,Wunderground v.1.15,2013-01-07 19:59:00,
2013-01-07 12:04:00,53.8,46.4,30.13,WNW,297,1.0,5.0,76,0.00,,,0.00,Wunderground v.1.15,2013-01-07 20:04:00,
2013-01-07 12:09:00,53.8,46.4,30.13,SSE,150,2.0,5.0,76,0.00,,,0.00,Wunderground v.1.15,2013-01-07 20:09:00,
2013-01-07 12:14:00,53.8,46.1,30.13,SSE,162,0.0,2.0,75,0.00,,,0.00,Wunderground v.1.15,2013-01-07 20:14:00,
2013-01-07 12:19:00,54.4,46.3,30.13,North,9,0.0,3.0,74,0.00,,,0.00,Wunderground v.1.15,2013-01-07 20:19:00,
2013-01-07 12:24:00,54.8,46.3,30.13,NNW,340,1.0,3.0,73,0.00,,,0.00,Wunderground v.1.15,2013-01-07 20:24:00,
2013-01-07 12:29:00,55.1,47.3,30.11,North,1,4.0,4.0,75,0.00,,,0.00,Wunderground v.1.15,2013-01-07 20:29:00,
2013-01-07 12:34:00,54.8,47.0,30.11,North,11,0.0,6.0,75,0.00,,,0.00,Wunderground v.1.15,2013-01-07 20:34:00,
2013-01-07 12:39:00,55.0,47.9,30.11,North,359,4.0,6.0,77,0.00,,,0.00,Wunderground v.1.15,2013-01-07 20:39:00,
2013-01-07 12:44:00,55.0,47.9,30.11,NE,51,0.0,4.0,77,0.00,,,0.00,Wunderground v.1.15,2013-01-07 20:44:00,
2013-01-07 12:49:00,55.3,48.2,30.11,NNW,342,3.0,4.0,77,0.00,,,0.00,Wunderground v.1.15,2013-01-07 20:49:00,
2013-01-07 12:54:00,55.4,48.0,30.11,NNW,330,0.0,3.0,76,0.00,,,0.00,Wunderground v.1.15,2013-01-07 20:54:00,
2013-01-07 12:59:00,55.4,47.6,30.10,North,352,0.0,4.0,75,0.00,,,0.00,Wunderground v.1.15,2013-01-07 20:59:00,
2013-01-07 13:04:00,55.1,47.3,30.10,NNW,347,0.0,6.0,75,0.00,,,0.00,Wunderground v.1.15,2013-01-07 21:04:00,
2013-01-07 13:09:00,55.1,48.0,30.10,SE,134,1.0,6.0,77,0.00,,,0.00,Wunderground v.1.15,2013-01-07 21:09:00,
2013-01-07 13:14:00,55.1,48.0,30.09,SE,134,0.0,2.0,77,0.00,,,0.00,Wunderground v.1.15,2013-01-07 21:14:00,
2013-01-07 13:19:00,54.8,47.7,30.09,ESE,118,0.0,2.0,77,0.00,,,0.00,Wunderground v.1.15,2013-01-07 21:19:00,
2013-01-07 13:24:00,54.5,47.8,30.09,ESE,121,0.0,2.0,78,0.00,,,0.00,Wunderground v.1.15,2013-01-07 21:24:00,
2013-01-07 13:29:00,54.4,48.0,30.08,ENE,78,0.0,2.0,79,0.00,,,0.00,Wunderground v.1.15,2013-01-07 21:29:00,
2013-01-07 13:34:00,54.2,48.2,30.08,SE,143,0.0,3.0,80,0.00,,,0.00,Wunderground v.1.15,2013-01-07 21:34:00,
2013-01-07 13:39:00,54.1,48.1,30.08,SSE,153,0.0,4.0,80,0.00,,,0.00,Wunderground v.1.15,2013-01-07 21:39:00,
2013-01-07 13:44:00,54.2,47.8,30.07,SE,143,1.0,2.0,79,0.00,,,0.00,Wunderground v.1.15,2013-01-07 21:44:00,
2013-01-07 13:49:00,54.2,48.2,30.07,ESE,112,0.0,3.0,80,0.00,,,0.00,Wunderground v.1.15,2013-01-07 21:49:00,
2013-01-07 13:54:00,54.4,48.7,30.07,NW,309,0.0,4.0,81,0.00,,,0.00,Wunderground v.1.15,2013-01-07 21:54:00,
2013-01-07 14:00:00,54.4,48.7,30.06,North,353,0.0,0.0,81,0.00,,,0.00,Wunderground v.1.15,2013-01-07 22:00:00,
2013-01-07 14:05:00,54.2,48.5,30.06,WNW,302,0.0,3.0,81,0.00,,,0.00,Wunderground v.1.15,2013-01-07 22:05:00,
2013-01-07 14:10:00,54.1,48.4,30.06,WNW,302,0.0,0.0,81,0.00,,,0.00,Wunderground v.1.15,2013-01-07 22:10:00,
2013-01-07 14:14:00,53.9,48.2,30.06,WNW,302,0.0,2.0,81,0.00,,,0.00,Wunderground v.1.15,2013-01-07 22:14:00,
2013-01-07 14:20:00,54.1,48.4,30.06,WNW,302,0.0,0.0,81,0.00,,,0.00,Wunderground v.1.15,2013-01-07 22:20:00,
2013-01-07 14:25:00,54.1,48.4,30.06,NNW,345,2.0,4.0,81,0.00,,,0.00,Wunderground v.1.15,2013-01-07 22:25:00,
2013-01-07 14:30:00,54.2,48.8,30.06,West,271,0.0,1.0,82,0.00,,,0.00,Wunderground v.1.15,2013-01-07 22:30:00,
2013-01-07 14:35:00,54.4,49.0,30.06,WNW,301,0.0,3.0,82,0.00,,,0.00,Wunderground v.1.15,2013-01-07 22:35:00,
2013-01-07 14:40:00,54.4,49.3,30.06,WNW,301,0.0,1.0,83,0.00,,,0.00,Wunderground v.1.15,2013-01-07 22:40:00,
2013-01-07 14:45:00,54.5,49.4,30.06,NW,322,1.0,5.0,83,0.00,,,0.00,Wunderground v.1.15,2013-01-07 22:45:00,
2013-01-07 14:50:00,54.5,49.4,30.06,NW,307,2.0,3.0,83,0.00,,,0.00,Wunderground v.1.15,2013-01-07 22:50:00,
2013-01-07 14:55:00,54.1,49.4,30.06,WNW,283,0.0,4.0,84,0.00,,,0.00,Wunderground v.1.15,2013-01-07 22:55:00,
2013-01-07 15:00:00,53.6,49.2,30.07,NW,321,0.0,1.0,85,0.00,,,0.00,Wunderground v.1.15,2013-01-07 23:00:00,
2013-01-07 15:05:00,53.3,49.2,30.07,North,0,0.0,7.0,86,0.00,,,0.00,Wunderground v.1.15,2013-01-07 23:05:00,
2013-01-07 15:10:00,53.2,49.4,30.07,North,0,0.0,1.0,87,0.00,,,0.00,Wunderground v.1.15,2013-01-07 23:10:00,
2013-01-07 15:15:00,53.1,49.3,30.06,WNW,298,1.0,4.0,87,0.00,,,0.00,Wunderground v.1.15,2013-01-07 23:15:00,
2013-01-07 15:20:00,53.1,49.6,30.06,NNW,333,0.0,2.0,88,0.00,,,0.00,Wunderground v.1.15,2013-01-07 23:20:00,
2013-01-07 15:25:00,52.9,49.4,30.06,East,84,1.0,2.0,88,0.00,,,0.00,Wunderground v.1.15,2013-01-07 23:25:00,
2013-01-07 15:30:00,52.8,49.3,30.06,ENE,77,0.0,0.0,88,0.00,,,0.00,Wunderground v.1.15,2013-01-07 23:30:00,
2013-01-07 15:35:00,52.6,49.1,30.06,West,271,0.0,2.0,88,0.00,,,0.00,Wunderground v.1.15,2013-01-07 23:35:00,
2013-01-07 15:40:00,52.5,49.0,30.06,WSW,243,0.0,0.0,88,0.00,,,0.00,Wunderground v.1.15,2013-01-07 23:40:00,
2013-01-07 15:45:00,52.3,48.9,30.06,SW,224,0.0,0.0,88,0.00,,,0.00,Wunderground v.1.15,2013-01-07 23:45:00,
2013-01-07 15:50:00,52.3,48.9,30.06,NW,313,0.0,0.0,88,0.00,,,0.00,Wunderground v.1.15,2013-01-07 23:50:00,
2013-01-07 15:55:00,52.2,48.8,30.06,NW,305,0.0,1.0,88,0.00,,,0.00,Wunderground v.1.15,2013-01-07 23:55:00,
2013-01-07 16:00:00,52.0,48.6,30.07,NW,316,0.0,0.0,88,0.00,,,0.00,Wunderground v.1.15,2013-01-08 00:00:00,
2013-01-07 16:05:00,51.9,48.8,30.07,NW,316,0.0,0.0,89,0.00,,,0.00,Wunderground v.1.15,2013-01-08 00:05:00,
2013-01-07 16:10:00,51.6,48.5,30.07,NW,316,0.0,0.0,89,0.00,,,0.00,Wunderground v.1.15,2013-01-08 00:10:00,
2013-01-07 16:15:00,51.4,48.3,30.07,NW,316,0.0,0.0,89,0.00,,,0.00,Wunderground v.1.15,2013-01-08 00:15:00,
2013-01-07 16:20:00,51.3,48.2,30.07,NW,316,0.0,0.0,89,0.00,,,0.00,Wunderground v.1.15,2013-01-08 00:20:00,
2013-01-07 16:25:00,51.1,48.0,30.07,NW,316,0.0,0.0,89,0.00,,,0.00,Wunderground v.1.15,2013-01-08 00:25:00,
2013-01-07 16:30:00,50.8,48.0,30.07,NW,316,0.0,0.0,90,0.00,,,0.00,Wunderground v.1.15,2013-01-08 00:30:00,
2013-01-07 16:35:00,50.7,47.9,30.07,NW,316,0.0,0.0,90,0.00,,,0.00,Wunderground v.1.15,2013-01-08 00:35:00,
2013-01-07 16:40:00,50.5,48.0,30.07,NW,316,0.0,0.0,91,0.00,,,0.00,Wunderground v.1.15,2013-01-08 00:40:00,
2013-01-07 16:45:00,50.4,48.2,30.07,NW,316,0.0,1.0,92,0.00,,,0.00,Wunderground v.1.15,2013-01-08 00:45:00,
2013-01-07 16:50:00,50.2,48.0,30.07,NW,316,0.0,0.0,92,0.00,,,0.00,Wunderground v.1.15,2013-01-08 00:50:00,
2013-01-07 16:55:00,50.2,48.0,30.07,NW,316,0.0,1.0,92,0.00,,,0.00,Wunderground v.1.15,2013-01-08 00:55:00,
2013-01-07 17:00:00,50.2,48.0,30.07,NW,316,0.0,0.0,92,0.00,,,0.00,Wunderground v.1.15,2013-01-08 01:00:00,
2013-01-07 17:06:00,50.1,48.2,30.07,NW,316,0.0,0.0,93,0.00,,,0.00,Wunderground v.1.15,2013-01-08 01:06:00,
2013-01-07 17:11:00,50.1,48.2,30.07,NW,316,0.0,0.0,93,0.00,,,0.00,Wunderground v.1.15,2013-01-08 01:11:00,
2013-01-07 17:16:00,49.9,48.0,30.08,NW,316,0.0,0.0,93,0.00,,,0.00,Wunderground v.1.15,2013-01-08 01:16:00,
2013-01-07 17:21:00,49.8,47.9,30.08,NW,316,0.0,0.0,93,0.00,,,0.00,Wunderground v.1.15,2013-01-08 01:21:00,
2013-01-07 17:26:00,49.6,47.7,30.08,NW,316,0.0,1.0,93,0.00,,,0.00,Wunderground v.1.15,2013-01-08 01:26:00,
2013-01-07 17:31:00,49.4,47.5,30.08,NW,316,0.0,0.0,93,0.00,,,0.00,Wunderground v.1.15,2013-01-08 01:31:00,
2013-01-07 17:36:00,49.2,47.3,30.08,NW,316,0.0,1.0,93,0.00,,,0.00,Wunderground v.1.15,2013-01-08 01:36:00,
2013-01-07 17:41:00,49.1,47.2,30.08,NW,316,0.0,1.0,93,0.00,,,0.00,Wunderground v.1.15,2013-01-08 01:41:00,
2013-01-07 17:46:00,48.9,47.0,30.07,NW,316,0.0,1.0,93,0.00,,,0.00,Wunderground v.1.15,2013-01-08 01:46:00,
2013-01-07 17:51:00,48.8,47.2,30.07,NW,316,0.0,0.0,94,0.00,,,0.00,Wunderground v.1.15,2013-01-08 01:51:00,
2013-01-07 17:56:00,48.6,47.0,30.07,NW,316,1.0,2.0,94,0.00,,,0.00,Wunderground v.1.15,2013-01-08 01:56:00,
2013-01-07 18:01:00,48.3,46.7,30.06,NW,316,0.0,0.0,94,0.00,,,0.00,Wunderground v.1.15,2013-01-08 02:01:00,
2013-01-07 18:06:00,48.0,46.4,30.06,NW,316,0.0,1.0,94,0.00,,,0.00,Wunderground v.1.15,2013-01-08 02:06:00,
2013-01-07 18:11:00,48.0,46.4,30.06,NW,316,0.0,0.0,94,0.00,,,0.00,Wunderground v.1.15,2013-01-08 02:11:00,
2013-01-07 18:16:00,47.9,46.3,30.07,NW,316,0.0,0.0,94,0.00,,,0.00,Wunderground v.1.15,2013-01-08 02:16:00,
2013-01-07 18:21:00,47.7,46.1,30.07,NW,316,0.0,0.0,94,0.00,,,0.00,Wunderground v.1.15,2013-01-08 02:21:00,
2013-01-07 18:26:00,47.6,46.0,30.07,NW,316,0.0,0.0,94,0.00,,,0.00,Wunderground v.1.15,2013-01-08 02:26:00,
2013-01-07 18:31:00,47.6,46.2,30.07,NW,316,1.0,2.0,95,0.00,,,0.00,Wunderground v.1.15,2013-01-08 02:31:00,
2013-01-07 18:36:00,47.6,46.2,30.07,NW,316,0.0,2.0,95,0.00,,,0.00,Wunderground v.1.15,2013-01-08 02:36:00,
2013-01-07 18:41:00,47.6,46.2,30.07,NW,316,0.0,0.0,95,0.00,,,0.00,Wunderground v.1.15,2013-01-08 02:41:00,
2013-01-07 18:46:00,47.6,46.2,30.07,NW,316,1.0,3.0,95,0.00,,,0.00,Wunderground v.1.15,2013-01-08 02:46:00,
2013-01-07 18:51:00,47.7,46.6,30.07,NW,316,2.0,2.0,96,0.00,,,0.00,Wunderground v.1.15,2013-01-08 02:51:00,
2013-01-07 18:56:00,47.7,46.3,30.07,NW,316,0.0,2.0,95,0.00,,,0.00,Wunderground v.1.15,2013-01-08 02:56:00,
2013-01-07 19:01:00,47.6,46.2,30.06,NW,316,0.0,0.0,95,0.00,,,0.00,Wunderground v.1.15,2013-01-08 03:01:00,
2013-01-07 19:06:00,47.4,46.0,30.06,NW,316,0.0,0.0,95,0.00,,,0.00,Wunderground v.1.15,2013-01-08 03:06:00,
2013-01-07 19:11:00,47.3,46.2,30.06,NW,316,1.0,2.0,96,0.00,,,0.00,Wunderground v.1.15,2013-01-08 03:11:00,
2013-01-07 19:16:00,47.1,46.0,30.06,NW,316,0.0,2.0,96,0.00,,,0.00,Wunderground v.1.15,2013-01-08 03:16:00,
2013-01-07 19:21:00,47.1,46.0,30.06,NW,316,0.0,0.0,96,0.00,,,0.00,Wunderground v.1.15,2013-01-08 03:21:00,
2013-01-07 19:26:00,47.1,46.0,30.06,NW,316,0.0,0.0,96,0.00,,,0.00,Wunderground v.1.15,2013-01-08 03:26:00,
2013-01-07 19:31:00,47.0,46.2,30.06,NW,316,0.0,0.0,97,0.00,,,0.00,Wunderground v.1.15,2013-01-08 03:31:00,
2013-01-07 19:36:00,47.0,46.2,30.06,NW,316,0.0,0.0,97,0.00,,,0.00,Wunderground v.1.15,2013-01-08 03:36:00,
2013-01-07 19:41:00,47.0,46.2,30.06,NW,316,0.0,1.0,97,0.00,,,0.00,Wunderground v.1.15,2013-01-08 03:41:00,
2013-01-07 19:46:00,46.8,46.3,30.07,NW,316,0.0,1.0,98,0.00,,,0.00,Wunderground v.1.15,2013-01-08 03:46:00,
2013-01-07 19:51:00,46.8,46.3,30.07,NW,316,0.0,0.0,98,0.00,,,0.00,Wunderground v.1.15,2013-01-08 03:51:00,
2013-01-07 19:56:00,46.8,46.3,30.07,NW,316,0.0,1.0,98,0.00,,,0.00,Wunderground v.1.15,2013-01-08 03:56:00,
2013-01-07 20:01:00,46.7,46.2,30.06,NW,316,0.0,0.0,98,0.00,,,0.00,Wunderground v.1.15,2013-01-08 04:01:00,
2013-01-07 20:06:00,46.5,46.0,30.06,NW,316,0.0,0.0,98,0.00,,,0.00,Wunderground v.1.15,2013-01-08 04:06:00,
2013-01-07 20:11:00,46.4,45.9,30.06,NW,316,0.0,0.0,98,0.00,,,0.00,Wunderground v.1.15,2013-01-08 04:11:00,
2013-01-07 20:16:00,46.2,45.7,30.07,NW,316,0.0,0.0,98,0.00,,,0.00,Wunderground v.1.15,2013-01-08 04:16:00,
2013-01-07 20:21:00,46.0,45.5,30.07,NW,316,0.0,0.0,98,0.00,,,0.00,Wunderground v.1.15,2013-01-08 04:21:00,
2013-01-07 20:27:00,45.7,45.4,30.07,NW,316,0.0,0.0,99,0.00,,,0.00,Wunderground v.1.15,2013-01-08 04:27:00,
2013-01-07 20:32:00,45.5,45.2,30.07,NW,316,0.0,0.0,99,0.00,,,0.00,Wunderground v.1.15,2013-01-08 04:32:00,
2013-01-07 20:37:00,45.2,45.2,30.07,NW,316,0.0,0.0,100,0.00,,,0.00,Wunderground v.1.15,2013-01-08 04:37:00,
2013-01-07 20:42:00,45.4,45.4,30.07,NW,316,0.0,0.0,100,0.00,,,0.00,Wunderground v.1.15,2013-01-08 04:42:00,
2013-01-07 20:47:00,45.4,45.4,30.07,NW,316,0.0,0.0,100,0.00,,,0.00,Wunderground v.1.15,2013-01-08 04:47:00,
2013-01-07 20:52:00,45.2,45.2,30.07,NW,316,0.0,0.0,100,0.00,,,0.00,Wunderground v.1.15,2013-01-08 04:52:00,
2013-01-07 20:57:00,45.1,45.1,30.07,NW,316,0.0,0.0,100,0.00,,,0.00,Wunderground v.1.15,2013-01-08 04:57:00,
2013-01-07 21:00:00,45.1,45.1,30.07,NW,316,0.0,0.0,100,0.00,,,0.00,Wunderground v.1.15,2013-01-08 05:00:00,
2013-01-07 21:03:00,44.9,44.9,30.07,NW,316,0.0,0.0,100,0.00,,,0.00,Wunderground v.1.15,2013-01-08 05:03:00,
2013-01-07 21:08:00,44.8,44.8,30.07,NW,316,0.0,0.0,100,0.00,,,0.00,Wunderground v.1.15,2013-01-08 05:08:00,
2013-01-07 21:13:00,44.8,44.8,30.07,NW,316,0.0,0.0,100,0.00,,,0.00,Wunderground v.1.15,2013-01-08 05:13:00,
2013-01-07 21:18:00,44.8,44.8,30.08,NW,316,0.0,0.0,100,0.00,,,0.00,Wunderground v.1.15,2013-01-08 05:18:00,
2013-01-07 21:23:00,44.6,44.6,30.08,NW,316,0.0,0.0,100,0.00,,,0.00,Wunderground v.1.15,2013-01-08 05:23:00,
2013-01-07 21:28:00,44.6,44.6,30.08,NW,316,0.0,0.0,100,0.00,,,0.00,Wunderground v.1.15,2013-01-08 05:28:00,
2013-01-07 21:33:00,44.6,44.6,30.08,NW,316,0.0,0.0,100,0.00,,,0.00,Wunderground v.1.15,2013-01-08 05:33:00,
2013-01-07 21:38:00,44.6,44.6,30.08,NW,316,0.0,0.0,100,0.00,,,0.00,Wunderground v.1.15,2013-01-08 05:38:00,
2013-01-07 21:43:00,44.6,44.6,30.07,NW,316,0.0,1.0,100,0.00,,,0.00,Wunderground v.1.15,2013-01-08 05:43:00,
2013-01-07 21:48:00,44.2,44.2,30.07,NW,316,0.0,1.0,100,0.00,,,0.00,Wunderground v.1.15,2013-01-08 05:48:00,
2013-01-07 21:53:00,43.9,43.9,30.07,NW,316,0.0,0.0,100,0.00,,,0.00,Wunderground v.1.15,2013-01-08 05:53:00,
2013-01-07 21:58:00,43.6,43.6,30.08,NW,316,0.0,0.0,100,0.00,,,0.00,Wunderground v.1.15,2013-01-08 05:58:00,
2013-01-07 22:03:00,43.8,43.8,30.08,NW,316,2.0,2.0,100,0.00,,,0.00,Wunderground v.1.15,2013-01-08 06:03:00,
2013-01-07 22:08:00,43.9,43.9,30.08,NW,316,0.0,2.0,100,0.00,,,0.00,Wunderground v.1.15,2013-01-08 06:08:00,
2013-01-07 22:13:00,43.9,43.9,30.07,NW,316,0.0,1.0,100,0.00,,,0.00,Wunderground v.1.15,2013-01-08 06:13:00,
2013-01-07 22:18:00,43.8,43.8,30.07,NW,316,0.0,1.0,100,0.00,,,0.00,Wunderground v.1.15,2013-01-08 06:18:00,
2013-01-07 22:23:00,43.6,43.6,30.07,NW,316,0.0,0.0,100,0.00,,,0.00,Wunderground v.1.15,2013-01-08 06:23:00,
2013-01-07 22:28:00,43.5,43.5,30.08,NW,316,0.0,0.0,100,0.00,,,0.00,Wunderground v.1.15,2013-01-08 06:28:00,
2013-01-07 22:33:00,43.6,43.6,30.08,NW,316,0.0,2.0,100,0.00,,,0.00,Wunderground v.1.15,2013-01-08 06:33:00,
2013-01-07 22:38:00,43.8,43.8,30.08,NW,316,1.0,2.0,100,0.00,,,0.00,Wunderground v.1.15,2013-01-08 06:38:00,
2013-01-07 22:43:00,44.1,44.1,30.08,NW,316,0.0,2.0,100,0.00,,,0.00,Wunderground v.1.15,2013-01-08 06:43:00,
2013-01-07 22:48:00,43.8,43.8,30.08,NW,316,0.0,2.0,100,0.00,,,0.00,Wunderground v.1.15,2013-01-08 06:48:00,
2013-01-07 22:53:00,43.3,43.3,30.08,NW,316,0.0,1.0,100,0.00,,,0.00,Wunderground v.1.15,2013-01-08 06:53:00,
2013-01-07 22:58:00,43.3,43.3,30.08,NW,316,0.0,1.0,100,0.00,,,0.00,Wunderground v.1.15,2013-01-08 06:58:00,
2013-01-07 23:03:00,43.3,43.3,30.08,NW,316,0.0,1.0,100,0.00,,,0.00,Wunderground v.1.15,2013-01-08 07:03:00,
2013-01-07 23:08:00,43.2,43.2,30.08,NW,316,0.0,1.0,100,0.00,,,0.00,Wunderground v.1.15,2013-01-08 07:08:00,
2013-01-07 23:13:00,43.2,43.2,30.07,NW,316,0.0,0.0,100,0.00,,,0.00,Wunderground v.1.15,2013-01-08 07:13:00,
2013-01-07 23:18:00,43.1,43.1,30.07,NW,316,0.0,0.0,100,0.00,,,0.00,Wunderground v.1.15,2013-01-08 07:18:00,
2013-01-07 23:23:00,43.1,43.1,30.07,NW,316,0.0,0.0,100,0.00,,,0.00,Wunderground v.1.15,2013-01-08 07:23:00,
2013-01-07 23:28:00,43.1,43.1,30.06,NW,316,0.0,0.0,100,0.00,,,0.00,Wunderground v.1.15,2013-01-08 07:28:00,
2013-01-07 23:33:00,43.1,43.1,30.06,NW,316,0.0,0.0,100,0.00,,,0.00,Wunderground v.1.15,2013-01-08 07:33:00,
2013-01-07 23:39:00,42.9,42.9,30.06,NW,316,0.0,0.0,100,0.00,,,0.00,Wunderground v.1.15,2013-01-08 07:39:00,
2013-01-07 23:44:00,42.9,42.9,30.06,NW,316,0.0,0.0,100,0.00,,,0.00,Wunderground v.1.15,2013-01-08 07:44:00,
2013-01-07 23:49:00,42.9,42.9,30.06,NW,316,0.0,1.0,100,0.00,,,0.00,Wunderground v.1.15,2013-01-08 07:49:00,
2013-01-07 23:54:00,42.9,42.9,30.06,NW,316,0.0,1.0,100,0.00,,,0.00,Wunderground v.1.15,2013-01-08 07:54:00,
2013-01-07 23:59:00,42.9,42.9,30.06,NW,316,0.0,1.0,100,0.00,,,0.00,Wunderground v.1.15,2013-01-08 07:59:00,